GW3371 Weather Reports


time (UTC)temp
C
wind
direction
speed
KPH
gust
KPH
rain 1hr
cm
rain 24hr
cm
rain mn
cm
humidity
%
barometer
mb
20260506114535 14 360 0.0 8.0 0.00 0.05 0.00 91 1008.4
20260506114016 14 360 1.6 8.0 0.00 0.05 0.00 91 1008.5
20260506113516 14 360 0.0 4.8 0.00 0.05 0.00 91 1008.2
20260506113040 14 360 1.6 16.1 0.00 0.05 0.00 91 1008.5
20260506112516 14 360 3.2 16.1 0.00 0.05 0.00 91 1008.6
20260506112016 14 360 0.0 17.7 0.00 0.05 0.00 91 1008.5
20260506111532 14 0 0.0 17.7 0.00 0.05 0.00 91 1008.6
20260506111017 13 360 3.2 14.5 0.00 0.05 0.00 91 1008.5
20260506110517 13 0 3.2 14.5 0.00 0.05 0.00 91 1008.7
20260506110043 13 360 1.6 14.5 0.00 0.05 0.00 91 1008.7
20260506105516 13 360 3.2 14.5 0.00 0.05 0.00 91 1008.6
20260506105019 13 360 0.0 8.0 0.00 0.05 0.00 91 1008.6
20260506104538 13 0 3.2 8.0 0.00 0.05 0.00 91 1008.8
20260506104017 13 0 0.0 14.5 0.00 0.05 0.00 91 1008.6
20260506103521 13 360 1.6 14.5 0.00 0.05 0.00 92 1008.6
20260506103045 13 360 3.2 14.5 0.00 0.05 0.00 92 1008.7
20260506102521 13 360 3.2 9.7 0.00 0.05 0.00 92 1008.6
20260506102021 13 0 0.0 8.0 0.00 0.05 0.00 93 1008.4
20260506101548 13 360 0.0 6.4 0.00 0.05 0.00 93 1008.4
20260506101021 13 0 1.6 6.4 0.00 0.05 0.00 93 1008.4
20260506100521 13 360 0.0 4.8 0.00 0.05 0.00 93 1008.4
20260506100048 13 360 0.0 4.8 0.00 0.05 0.00 93 1008.4
20260506095521 13 0 0.0 8.0 0.00 0.05 0.00 93 1008.2
20260506095024 13 0 1.6 8.0 0.00 0.05 0.00 93 1008.3
20260506094536 13 0 0.0 4.8 0.00 0.05 0.00 93 1008.1
20260506094022 13 360 0.0 4.8 0.00 0.05 0.00 92 1008.1
20260506093517 13 360 0.0 4.8 0.00 0.05 0.00 92 1008.2
20260506093043 13 360 0.0 3.2 0.00 0.05 0.00 92 1008.2
20260506092519 13 0 0.0 3.2 0.00 0.05 0.00 92 1008.4
20260506092019 13 0 0.0 1.6 0.00 0.05 0.00 92 1008.3
20260506091539 13 0 0.0 6.4 0.00 0.05 0.00 91 1008.2
20260506091019 13 0 0.0 6.4 0.00 0.05 0.00 91 1008.3
20260506090518 13 0 0.0 6.4 0.00 0.05 0.00 91 1008.3
20260506090034 13 0 0.0 6.4 0.00 0.05 0.00 91 1008.3
20260506085518 13 360 0.0 4.8 0.00 0.05 0.00 92 1008.3
20260506085018 13 360 0.0 3.2 0.00 0.05 0.00 92 1008.2
20260506084549 13 0 0.0 3.2 0.00 0.05 0.00 92 1008.3
20260506084018 13 0 0.0 3.2 0.00 0.05 0.00 92 1008.5
20260506083518 13 360 0.0 4.8 0.00 0.05 0.00 92 1008.4
20260506083041 13 0 1.6 4.8 0.00 0.05 0.00 92 1008.5
20260506082521 13 0 0.0 3.2 0.00 0.05 0.00 92 1008.4
20260506082017 12 0 0.0 6.4 0.00 0.05 0.00 92 1008.4
20260506081545 12 0 0.0 6.4 0.00 0.05 0.00 92 1008.3
20260506081017 12 360 0.0 3.2 0.00 0.05 0.00 92 1008.3
20260506080520 12 0 0.0 1.6 0.00 0.05 0.00 91 1008.3
20260506073044 13 0 0.0 1.6 0.00 0.05 0.00 89 1008.3
20260506072518 13 0 0.0 1.6 0.00 0.05 0.00 88 1008.4
20260506072017 13 0 0.0 1.6 0.00 0.05 0.00 88 1008.4
20260506071541 13 0 0.0 4.8 0.00 0.05 0.00 88 1008.4
20260506071022 13 0 0.0 4.8 0.00 0.05 0.00 87 1008.5
20260506070520 13 360 0.0 4.8 0.00 0.05 0.00 87 1008.6
20260506062021 14 0 0.0 3.2 0.00 0.05 0.00 85 1008.2
20260506061537 14 0 0.0 1.6 0.00 0.05 0.00 85 1008.2
20260506061021 14 0 0.0 1.6 0.00 0.05 0.00 84 1008.3
20260506060521 15 0 0.0 1.6 0.00 0.05 0.00 84 1008.2
20260506051023 15 360 0.0 3.2 0.00 0.05 0.00 80 1008.5
20260506050520 15 0 0.0 3.2 0.00 0.05 0.00 79 1008.5
20260506045017 16 360 0.0 4.8 0.00 0.05 0.00 78 1008.6
20260506044625 16 0 0.0 3.2 0.00 0.05 0.00 78 1008.5
20260506044021 16 360 0.0 3.2 0.00 0.05 0.00 69 1008.5
20260506043521 16 0 0.0 4.8 0.00 0.05 0.00 77 1008.5
20260506043034 16 0 1.6 4.8 0.00 0.05 0.00 77 1008.5
20260506042521 16 0 1.6 8.0 0.00 0.05 0.00 77 1008.5
20260506042021 16 0 0.0 8.0 0.00 0.05 0.00 76 1008.4
20260506041536 16 360 1.6 6.4 0.00 0.05 0.00 76 1008.5
20260506041028 16 0 0.0 16.1 0.00 0.05 0.00 75 1008.6
20260506040521 16 0 0.0 16.1 0.00 0.05 0.00 75 1008.5
20260506040032 16 360 4.8 16.1 0.00 0.05 0.00 75 1008.6
20260506035521 16 0 3.2 14.5 0.00 0.05 0.05 75 1008.6
20260506035021 16 360 3.2 14.5 0.00 0.05 0.05 74 1008.6
20260506034602 17 360 1.6 16.1 0.00 0.05 0.05 73 1008.5
20260506034022 17 360 4.8 16.1 0.00 0.05 0.05 73 1008.5
20260506033522 17 360 1.6 9.7 0.00 0.05 0.05 73 1008.5
20260506033038 17 360 1.6 9.7 0.00 0.05 0.05 64 1008.5
20260506032521 17 360 3.2 9.7 0.00 0.05 0.05 73 1008.5
20260506032024 17 360 0.0 16.1 0.00 0.05 0.05 74 1008.3
20260506031540 17 360 1.6 16.1 0.00 0.05 0.05 74 1008.4
20260506031021 17 360 1.6 16.1 0.00 0.05 0.05 73 1008.2
20260506030522 17 0 0.0 14.5 0.00 0.05 0.05 73 1008.4
20260506030038 17 360 3.2 14.5 0.00 0.05 0.05 73 1008.4
20260506025518 17 360 1.6 8.0 0.00 0.05 0.05 73 1008.5
20260506025022 17 360 0.0 8.0 0.00 0.05 0.05 73 1008.3
20260506024535 17 360 4.8 8.0 0.00 0.05 0.05 73 1008.3
20260506024018 17 360 1.6 14.5 0.00 0.05 0.05 74 1008.3
20260506023518 17 360 1.6 14.5 0.00 0.05 0.05 74 1008.3
20260506023100 17 360 1.6 14.5 0.00 0.05 0.05 74 1008.1
20260506022517 17 0 0.0 6.4 0.00 0.05 0.05 67 1008.2
20260506022018 17 0 1.6 6.4 0.00 0.05 0.05 75 1008.2
20260506021537 17 0 1.6 4.8 0.00 0.05 0.05 76 1008.2
20260506021018 17 360 0.0 4.8 0.00 0.05 0.05 77 1008.2
20260506020522 17 0 0.0 4.8 0.00 0.05 0.05 77 1008.1
20260506020036 17 360 1.6 6.4 0.00 0.05 0.05 77 1008.1
20260506015524 17 0 0.0 6.4 0.00 0.05 0.05 77 1008.1
20260506015019 17 360 1.6 6.4 0.00 0.05 0.05 69 1008.1
20260506014537 17 360 0.0 8.0 0.00 0.05 0.05 79 1008.1
20260506014022 17 0 1.6 8.0 0.00 0.05 0.05 81 1008.0
20260506013522 17 0 0.0 6.4 0.00 0.05 0.05 83 1008.1
20260506013040 17 0 0.0 3.2 0.00 0.05 0.05 83 1008.0
20260506012518 17 0 0.0 8.0 0.00 0.05 0.05 85 1008.0
20260506012017 17 0 0.0 8.0 0.00 0.05 0.05 85 1008.0
20260506011532 17 360 0.0 8.0 0.00 0.05 0.05 76 1007.9
20260506011022 17 360 0.0 6.4 0.00 0.05 0.05 88 1007.9
20260506010518 17 360 1.6 6.4 0.00 0.05 0.05 88 1007.8
20260506010032 17 0 0.0 1.6 0.00 0.05 0.05 92 1007.8
20260506005518 17 0 0.0 3.2 0.00 0.05 0.05 91 1007.8
20260506005017 17 0 0.0 3.2 0.03 0.05 0.05 90 1007.8
20260506004559 17 360 0.0 4.8 0.05 0.05 0.05 91 1007.9
20260506004018 17 360 1.6 4.8 0.05 0.05 0.05 90 1007.9
20260506003520 17 360 0.0 4.8 0.05 0.05 0.05 90 1007.8
20260506003045 18 0 0.0 1.6 0.05 0.05 0.05 89 1007.8
20260506002518 18 0 0.0 1.6 0.05 0.05 0.05 88 1007.6
20260506002021 18 360 0.0 3.2 0.05 0.05 0.05 88 1007.7
20260506001538 18 360 0.0 3.2 0.05 0.05 0.05 87 1007.7
20260506001018 19 360 0.0 3.2 0.05 0.05 0.05 76 1007.7
20260506000521 20 0 0.0 4.8 0.05 0.05 0.05 74 1007.5
20260506000034 20 360 0.0 4.8 0.05 0.05 0.05 80 1007.5
20260505235521 21 360 1.6 8.0 0.05 0.05 0.05 74 1007.3
20260505235021 21 360 1.6 19.3 0.03 0.03 0.03 67 1007.1
20260505234556 22 360 6.4 19.3 0.00 0.00 0.00 62 1007.4
20260505234029 22 360 4.8 16.1 0.00 0.00 0.00 60 1007.1
20260505233525 22 360 4.8 16.1 0.00 0.00 0.00 59 1006.7
20260505233038 22 360 3.2 17.7 0.00 0.00 0.00 58 1006.0
20260505232521 22 360 6.4 17.7 0.00 0.00 0.00 58 1005.5
20260505232021 22 360 6.4 17.7 0.00 0.00 0.00 57 1005.4
20260505231535 22 360 3.2 20.9 0.00 0.00 0.00 57 1005.3
20260505231020 22 360 4.8 20.9 0.00 0.00 0.00 56 1005.3
20260505230520 23 360 4.8 17.7 0.00 0.00 0.00 56 1005.2
20260505230042 23 360 3.2 20.9 0.00 0.00 0.00 56 1005.3
20260505225524 23 360 3.2 20.9 0.00 0.00 0.00 56 1005.1
20260505225021 23 360 1.6 24.1 0.00 0.00 0.00 55 1005.1
20260505224539 23 360 8.0 24.1 0.00 0.00 0.00 55 1005.1
20260505224017 23 0 9.7 24.1 0.00 0.00 0.00 54 1004.9
20260505223517 23 360 4.8 16.1 0.00 0.00 0.00 54 1004.9
20260505223036 23 360 4.8 40.2 0.00 0.00 0.00 54 1004.8
20260505222524 23 360 4.8 40.2 0.00 0.00 0.00 54 1004.7
20260505222021 24 360 3.2 25.7 0.00 0.00 0.00 54 1004.7
20260505221606 24 360 4.8 32.2 0.00 0.00 0.00 53 1004.6
20260505221021 24 360 8.0 32.2 0.00 0.00 0.00 53 1004.6
20260505220520 24 360 9.7 32.2 0.00 0.00 0.00 53 1004.5
20260505220051 25 360 6.4 30.6 0.00 0.00 0.00 53 1004.6
20260505215520 25 360 8.0 30.6 0.00 0.00 0.00 53 1004.6
20260505215021 25 360 3.2 25.7 0.00 0.00 0.00 53 1004.6
20260505214539 25 360 6.4 25.7 0.00 0.00 0.00 52 1004.5
20260505214021 25 360 6.4 33.8 0.00 0.00 0.00 52 1004.4
20260505213524 25 360 8.0 33.8 0.00 0.00 0.00 52 1004.1
20260505213035 25 360 8.0 24.1 0.00 0.00 0.00 51 1004.2
20260505212521 26 360 8.0 29.0 0.00 0.00 0.00 50 1003.9
20260505212021 26 360 4.8 29.0 0.00 0.00 0.00 51 1003.8
20260505211535 26 360 6.4 37.0 0.00 0.00 0.00 50 1003.7
20260505211021 26 360 6.4 37.0 0.00 0.00 0.00 50 1003.9
20260505210518 26 360 9.7 25.7 0.00 0.00 0.00 49 1003.9
20260505210034 26 360 8.0 24.1 0.00 0.00 0.00 49 1004.0
20260505205523 26 360 8.0 24.1 0.00 0.00 0.00 48 1003.9
20260505205020 26 360 4.8 25.7 0.00 0.00 0.00 49 1003.7
20260505204536 26 360 6.4 25.7 0.00 0.00 0.00 49 1003.8
20260505204020 26 360 6.4 24.1 0.00 0.00 0.00 49 1003.8
20260505203520 26 360 11.3 24.1 0.00 0.00 0.00 49 1003.8
20260505203036 27 360 8.0 24.1 0.00 0.00 0.00 47 1003.8
20260505202521 28 360 8.0 27.4 0.00 0.00 0.00 46 1003.7
20260505202018 28 360 3.2 27.4 0.00 0.00 0.00 45 1003.9
20260505201536 28 360 6.4 24.1 0.00 0.00 0.00 41 1004.0
20260505201021 27 360 4.8 27.4 0.00 0.00 0.00 39 1004.0
20260505200521 27 360 6.4 27.4 0.00 0.00 0.00 39 1004.0
20260505200035 27 360 12.9 29.0 0.00 0.00 0.00 38 1003.9
20260505195521 27 360 6.4 29.0 0.00 0.00 0.00 38 1004.1
20260505195021 28 360 4.8 24.1 0.00 0.00 0.00 38 1004.1
20260505194537 28 360 8.0 25.7 0.00 0.00 0.00 37 1003.9
20260505194021 28 360 9.7 25.7 0.00 0.00 0.00 36 1004.0
20260505193521 28 360 9.7 25.7 0.00 0.00 0.00 37 1004.0
20260505193040 28 360 8.0 29.0 0.00 0.00 0.00 37 1004.0
20260505192517 28 360 6.4 32.2 0.00 0.00 0.00 37 1004.0
20260505192020 28 360 8.0 38.6 0.00 0.00 0.00 38 1004.1
20260505191549 27 360 11.3 38.6 0.00 0.00 0.00 38 1004.3
20260505191027 27 360 4.8 22.5 0.00 0.00 0.00 48 1004.3
20260505190521 27 360 4.8 25.7 0.00 0.00 0.00 49 1004.3
20260505190037 27 360 3.2 25.7 0.00 0.00 0.00 39 1004.3
20260505185518 27 360 6.4 20.9 0.00 0.00 0.00 48 1004.5
20260505185021 27 360 3.2 22.5 0.00 0.00 0.00 49 1004.4
20260505184534 26 360 4.8 22.5 0.00 0.00 0.00 50 1004.3
20260505184021 26 360 6.4 22.5 0.00 0.00 0.00 49 1004.4
20260505183521 26 360 6.4 17.7 0.00 0.00 0.00 50 1004.7
20260505183036 26 360 6.4 29.0 0.00 0.00 0.00 49 1004.9
20260505182522 26 360 4.8 29.0 0.00 0.00 0.00 41 1004.8
20260505182021 26 360 3.2 20.9 0.00 0.00 0.00 51 1004.7
20260505181535 26 360 8.0 24.1 0.00 0.00 0.00 49 1004.9
20260505181021 26 360 4.8 24.1 0.00 0.00 0.00 49 1004.9
20260505180520 26 360 8.0 20.9 0.00 0.00 0.00 48 1005.0
20260505180047 26 360 4.8 25.7 0.00 0.00 0.00 48 1005.1
20260505175518 26 360 8.0 25.7 0.00 0.00 0.00 39 1005.2
20260505175018 26 360 6.4 20.9 0.00 0.00 0.00 48 1005.3
20260505174546 26 360 6.4 35.4 0.00 0.00 0.00 48 1005.3
20260505174018 26 360 9.7 35.4 0.00 0.00 0.00 49 1005.3
20260505173518 26 360 3.2 25.7 0.00 0.00 0.00 49 1005.3
20260505173035 26 0 4.8 25.7 0.00 0.00 0.00 50 1005.4
20260505172517 26 360 4.8 25.7 0.00 0.00 0.00 52 1005.5
20260505172017 25 360 9.7 24.1 0.00 0.00 0.00 51 1005.6
20260505171535 25 360 6.4 24.1 0.00 0.00 0.00 52 1005.5
20260505171021 25 360 4.8 24.1 0.00 0.00 0.00 52 1005.7
20260505170521 25 360 4.8 14.5 0.00 0.00 0.00 54 1005.8
20260505170041 25 360 4.8 19.3 0.00 0.00 0.00 54 1005.8
20260505165526 25 360 6.4 19.3 0.00 0.00 0.00 53 1005.9
20260505165021 25 360 3.2 17.7 0.00 0.00 0.00 52 1005.9
20260505164534 25 360 3.2 17.7 0.00 0.00 0.00 53 1006.1
20260505164021 25 0 4.8 17.7 0.00 0.00 0.00 52 1006.1
20260505163521 25 360 3.2 19.3 0.00 0.00 0.00 53 1006.4
20260505163040 25 360 6.4 19.3 0.00 0.00 0.00 52 1006.3
20260505162517 25 360 8.0 20.9 0.00 0.00 0.00 53 1006.4
20260505162020 24 360 6.4 20.9 0.00 0.00 0.00 53 1006.4
20260505161535 24 360 8.0 22.5 0.00 0.00 0.00 54 1006.6
20260505161020 24 360 6.4 22.5 0.00 0.00 0.00 54 1006.8
20260505160521 24 360 4.8 17.7 0.00 0.00 0.00 54 1006.8
20260505153046 22 360 8.0 19.3 0.00 0.00 0.00 57 1007.4
20260505152520 22 360 6.4 17.7 0.00 0.00 0.00 58 1007.5
20260505152021 21 360 3.2 14.5 0.00 0.00 0.00 59 1007.7
20260505151534 21 360 4.8 17.7 0.00 0.00 0.00 60 1007.7
20260505151021 21 360 4.8 17.7 0.00 0.00 0.00 61 1007.8
20260505150521 21 360 6.4 17.7 0.00 0.00 0.00 61 1007.9
20260505140521 17 360 1.6 12.9 0.00 0.00 0.00 71 1008.7
20260505125018 13 360 3.2 9.7 0.00 0.00 0.00 82 1009.1
20260505124535 13 360 1.6 9.7 0.00 0.00 0.00 83 1009.1
20260505124019 13 360 1.6 9.7 0.00 0.00 0.00 83 1009.1
20260505123521 12 360 1.6 16.1 0.00 0.00 0.00 84 1009.1
20260505123053 12 360 3.2 16.1 0.00 0.00 0.00 85 1009.2
20260505122518 12 360 3.2 16.1 0.00 0.00 0.00 85 1009.1
20260505122021 12 360 1.6 9.7 0.00 0.00 0.00 86 1009.0
20260505121539 12 360 1.6 12.9 0.00 0.00 0.00 86 1009.1
20260505121021 12 0 3.2 14.5 0.00 0.00 0.00 87 1009.1
20260505120525 11 360 3.2 14.5 0.00 0.00 0.00 87 1009.2
20260505120035 11 0 1.6 9.7 0.00 0.00 0.00 88 1009.3
20260505115521 11 360 1.6 12.9 0.00 0.00 0.00 88 1009.4
20260505115020 11 360 4.8 12.9 0.00 0.00 0.00 89 1009.4